Theta_e
308 307 308 308 308 309 309 309 310 311 311 311 312 311 305 300 301 306 311 310 316 310 313 316 312 310 311 310 314 315 314 316 318 320 322 322 322 322 321 320 326 327 326 327 326
308 309 309 308 308 309 309 309 310 310 310 310 312 309 301 302 307 311 308 313 317 316 315 312 308 307 310 311 313 313 313 316 317 318 319 319 320 320 320 320 322 324 326 326 325
308 308 308 309 308 309 309 309 310 310 310 311 311 305 300 305 313 318 320 314 317 315 309 308 309 308 309 312 311 312 315 315 316 317 317 318 320 320 319 319 321 323 324 325 323
308 308 308 308 309 309 309 309 310 311 311 310 309 302 302 311 321 315 320 318 311 307 311 316 316 312 309 309 308 312 313 314 315 316 317 318 319 319 318 319 322 321 322 324 322
307 307 308 308 309 309 309 310 309 309 310 310 308 301 311 314 316 313 312 310 310 309 313 316 315 309 309 309 309 309 310 313 314 315 315 316 317 318 318 318 319 319 323 322 322
306 307 308 309 309 310 308 308 309 309 310 309 308 306 313 307 308 317 311 310 311 314 317 316 316 310 310 309 309 310 310 310 311 311 312 315 316 317 318 318 318 320 320 322 321
301 305 307 309 308 308 307 308 309 308 310 307 304 310 312 305 315 315 311 313 315 318 318 316 313 312 311 311 311 311 311 310 311 312 312 313 313 314 314 315 316 316 319 321 322
297 299 305 307 308 307 308 310 312 309 308 301 301 312 310 306 309 311 313 315 316 316 316 315 315 312 312 310 309 311 309 309 310 313 312 312 313 313 312 314 315 315 316 320 322
297 298 305 306 306 308 309 310 311 309 302 300 307 312 314 318 316 314 314 314 316 316 315 314 313 311 310 309 307 308 310 310 311 311 311 313 313 313 312 313 313 314 314 316 320
300 299 302 305 306 308 309 310 312 313 307 312 312 312 314 319 316 315 312 313 313 313 313 313 308 310 307 307 309 310 310 310 311 311 311 310 311 313 313 312 313 314 314 314 314
304 302 300 306 306 307 309 311 313 316 315 316 317 314 317 320 315 313 312 312 313 313 311 310 309 309 309 309 311 311 311 312 312 312 313 312 312 312 312 312 312 313 311 312 313
307 306 302 303 307 309 309 311 315 315 312 316 317 315 317 319 320 314 314 312 312 311 311 310 310 311 311 312 313 313 313 312 311 312 313 311 311 312 312 312 312 311 312 314 315
307 307 304 302 307 310 312 313 317 317 313 316 316 319 319 318 320 317 314 313 312 311 311 310 312 313 313 313 313 313 312 312 312 313 312 312 312 312 312 313 312 313 313 313 313
308 307 305 305 309 311 311 315 315 315 317 320 319 318 316 314 314 314 315 313 312 312 311 310 312 313 313 313 313 313 318 317 315 313 312 312 313 312 312 312 313 312 310 310 312
309 307 306 304 303 308 315 316 316 316 321 324 317 316 311 312 314 315 314 313 313 312 311 313 312 312 313 313 318 318 318 318 317 314 311 312 311 312 312 313 313 311 311 311 311
310 308 306 307 307 312 314 316 316 320 327 323 315 314 312 313 314 314 315 313 313 312 312 312 312 312 313 317 318 318 318 316 316 309 313 312 311 313 312 312 313 314 316 315 314
310 309 308 307 308 313 313 314 317 323 322 320 316 315 314 314 314 314 314 313 313 312 312 313 313 313 318 319 317 316 316 320 319 319 318 314 312 312 312 312 314 314 315 314 315
311 309 314 315 304 307 314 317 321 319 320 318 316 316 317 315 313 314 314 312 311 312 313 315 317 316 319 318 318 318 316 315 321 319 317 318 319 315 314 314 314 316 314 312 313
310 309 313 317 307 308 312 318 321 321 320 315 315 315 314 313 313 312 312 314 315 314 315 315 317 316 317 317 316 320 321 318 321 320 322 319 318 316 315 315 317 316 316 314 310
309 308 313 318 315 315 313 317 317 318 315 315 313 314 311 310 310 311 312 315 316 315 313 315 315 316 317 317 316 317 316 318 318 315 321 320 321 318 317 316 318 316 314 315 313
307 308 317 319 318 313 315 316 317 317 314 314 313 312 311 311 311 312 314 315 315 313 313 314 315 316 314 315 314 314 316 317 316 315 314 319 317 318 318 317 317 317 316 314 314
303 308 311 316 314 315 319 320 313 315 314 313 312 312 312 312 314 314 314 314 313 312 313 315 314 316 315 313 314 316 316 315 315 319 322 320 319 315 315 316 315 315 316 315 315
305 306 311 313 313 315 314 314 315 315 314 314 313 311 311 312 311 314 313 313 311 312 313 315 313 311 310 309 311 314 316 317 316 313 315 312 313 312 313 312 313 314 315 316 316
304 312 311 309 310 310 313 316 316 316 315 310 310 310 308 309 309 310 310 311 311 314 317 311 309 309 311 310 308 313 315 315 316 312 313 316 315 313 314 314 315 313 312 314 316
308 312 307 309 309 309 311 313 314 315 312 310 309 309 308 308 308 308 309 310 310 316 311 308 310 310 310 312 313 313 312 312 313 314 315 313 313 316 316 314 314 313 314 313 314
311 311 306 308 309 312 313 314 313 312 313 311 308 307 307 307 307 309 307 307 309 309 308 306 309 311 312 312 311 313 312 311 311 312 313 315 316 315 315 313 314 314 316 317 316
303 305 307 308 310 311 313 313 313 312 311 311 310 308 307 306 307 306 304 305 306 307 306 307 307 309 311 312 312 313 314 317 317 317 316 316 316 315 315 316 315 314 315 315 315
Wind_Speed
17 16 16 15 15 16 16 15 15 15 14 15 14 14 14 15 18 10 8 11 4 12 10 8 6 8 5 4 4 2 1 6 6 6 7 17 5 8 8 7 14 9 3 7 10
18 17 17 16 16 16 16 15 15 15 15 14 14 13 11 14 17 13 13 9 8 7 5 7 3 5 2 5 2 5 4 6 5 4 7 14 12 12 7 13 6 2 4 10 11
19 18 17 16 16 15 15 16 15 14 14 13 13 11 9 12 4 6 3 13 9 12 10 4 7 1 4 2 5 5 7 4 7 9 9 17 23 10 7 9 8 7 9 7 7
20 19 18 17 17 16 16 16 16 15 13 12 11 7 7 3 1 4 6 7 6 6 5 2 1 2 3 5 5 6 8 12 13 15 15 18 20 21 9 11 10 8 8 2 8
22 20 19 18 17 16 16 15 14 14 13 11 9 4 2 1 8 6 9 9 7 8 6 2 1 0 3 4 5 5 7 12 17 18 17 19 21 23 24 9 9 9 9 9 9
23 22 20 19 17 16 15 15 14 13 11 9 7 2 1 2 4 10 13 11 9 10 5 7 6 8 4 4 3 5 5 9 8 10 7 13 19 15 27 8 9 7 8 10 9
30 25 22 19 16 15 13 12 12 12 10 6 2 1 3 12 3 13 14 10 10 12 3 7 2 6 2 7 1 6 7 8 4 4 5 3 8 14 9 5 9 9 9 9 11
30 30 24 20 16 12 11 9 9 10 7 3 2 2 7 5 6 13 15 16 15 15 17 9 8 1 3 2 9 6 4 4 5 6 7 6 16 17 10 7 17 8 9 10 11
32 30 25 21 17 13 11 10 8 7 4 2 2 1 9 11 6 20 21 17 20 17 13 9 2 3 4 3 5 4 5 8 8 5 5 5 17 11 10 10 13 17 8 10 10
34 31 25 20 17 17 15 12 8 3 2 1 4 3 7 3 7 13 13 16 9 4 0 1 4 1 3 4 4 6 5 7 7 7 4 8 12 16 13 9 15 18 17 9 9
35 33 24 20 17 18 19 5 3 1 4 7 6 6 10 7 2 11 10 6 1 2 2 4 2 6 12 10 13 8 12 16 16 9 3 6 8 13 8 8 15 16 9 9 9
37 35 26 19 17 17 13 1 7 6 9 16 19 15 24 15 5 6 11 6 5 6 2 4 6 14 10 11 11 13 16 16 9 6 4 9 11 15 9 8 8 9 8 8 4
38 34 26 21 18 10 7 12 17 18 4 9 7 7 8 10 9 13 10 6 6 5 6 8 11 10 10 12 13 11 7 7 11 6 4 6 10 11 15 6 9 8 8 6 10
40 33 28 22 6 7 7 15 13 4 4 6 5 6 6 8 5 14 18 9 6 13 10 8 13 11 10 7 4 5 6 13 13 7 11 6 13 8 8 8 8 8 8 8 8
42 38 31 14 11 4 8 17 18 3 3 3 4 6 7 10 3 3 17 4 14 11 7 12 6 8 7 10 1 6 3 4 7 12 4 6 2 11 4 10 10 10 9 9 10
47 44 29 3 7 12 15 19 4 4 4 2 3 4 5 3 4 2 4 4 6 8 7 12 7 6 9 2 5 3 1 3 2 2 7 14 5 14 10 11 6 6 12 12 11
49 46 17 6 4 1 16 4 4 3 6 5 3 4 3 4 5 6 8 6 11 3 7 10 11 10 2 1 5 9 6 5 4 3 13 12 7 16 11 9 13 14 10 15 17
49 39 13 10 3 4 6 4 2 4 3 12 5 5 1 5 6 7 7 4 7 1 1 5 4 1 3 4 4 3 5 4 6 4 9 6 8 18 5 10 14 7 7 10 16
49 31 8 2 8 3 4 2 5 4 5 2 4 2 3 5 1 6 4 3 2 2 5 1 2 3 1 5 6 3 5 4 3 3 4 5 8 15 19 13 8 8 7 15 7
44 16 10 6 10 4 4 5 4 2 11 4 1 1 2 4 4 5 3 1 2 2 3 2 4 3 3 3 3 3 2 1 1 3 6 5 5 8 6 7 8 8 8 13 11
16 4 5 15 9 4 2 5 6 8 10 4 3 4 4 3 4 4 4 9 5 2 4 4 4 4 2 1 2 1 0 3 1 3 3 5 5 5 2 5 3 3 5 6 9
4 4 3 4 1 2 3 4 11 7 7 3 3 1 3 2 3 4 5 4 10 8 3 4 5 3 7 6 4 3 4 5 3 3 4 1 7 14 9 9 6 2 6 4 1
4 3 11 4 2 3 6 8 6 5 5 7 4 4 2 0 3 3 8 9 7 6 3 6 1 1 7 5 3 3 5 6 2 2 6 3 5 4 8 11 12 7 7 5 7
3 3 4 3 2 2 5 5 11 9 7 4 3 4 5 3 1 5 8 5 10 5 0 5 3 7 6 7 5 5 6 9 8 4 4 8 15 13 12 12 12 12 5 10 16
1 3 3 3 4 8 7 9 13 12 8 8 5 8 5 3 6 6 3 4 7 1 5 3 4 4 6 8 10 12 12 12 10 14 8 15 10 2 7 7 6 7 10 6 4
3 3 4 5 8 8 6 3 9 11 8 9 7 12 6 4 6 12 3 2 5 2 3 3 3 2 4 6 7 11 13 16 17 17 13 7 5 7 7 7 6 7 7 5 4
4 4 1 3 3 4 3 5 12 11 9 7 14 15 13 13 6 7 8 7 7 5 3 2 2 3 4 3 7 7 3 6 7 7 4 3 6 5 5 6 7 5 4 5 5
Wind_Direction
332 327 323 322 321 320 318 317 316 315 315 317 320 318 317 320 313 310 228 222 198 219 225 269 278 243 230 226 216 111 124 222 224 228 262 293 297 307 299 268 212 246 160 195 156
333 328 325 321 319 316 313 311 313 313 315 317 317 314 323 328 320 261 251 214 209 256 230 218 234 193 195 213 219 159 192 226 210 246 261 279 277 299 331 302 296 307 75 129 128
337 332 328 322 320 316 313 312 312 312 312 314 315 316 327 337 316 259 279 202 224 233 236 224 244 296 215 189 222 206 233 244 265 251 257 269 278 278 244 278 260 243 241 185 131
340 335 330 324 319 316 313 310 310 312 312 313 314 319 326 353 231 305 151 179 220 208 196 203 249 183 222 222 219 247 261 238 248 245 253 262 274 272 224 234 249 276 261 130 152
345 341 333 327 321 317 313 312 310 310 311 310 314 346 46 329 249 202 177 174 179 184 215 163 321 170 237 235 279 187 259 252 246 248 246 254 259 266 266 214 236 263 299 222 188
348 345 338 331 324 318 314 313 313 312 312 312 312 15 153 280 269 210 185 181 197 203 195 173 232 220 229 223 147 284 276 272 266 254 254 255 266 266 266 172 208 226 258 261 182
358 350 343 336 331 324 326 328 332 331 312 295 272 99 259 237 233 188 189 196 210 222 235 251 255 39 347 340 360 291 311 314 271 242 246 239 276 251 272 277 189 212 232 243 259
5 1 353 345 338 336 335 334 338 337 315 279 131 152 248 257 206 217 213 243 245 245 236 291 301 37 47 315 348 339 359 330 284 311 285 151 267 272 277 270 285 211 212 224 233
4 1 358 353 340 337 338 323 314 339 342 132 126 158 268 305 207 234 225 218 243 250 245 246 136 171 342 58 359 338 261 285 305 253 253 182 277 265 265 244 258 276 230 210 226
0 359 355 352 342 335 335 318 286 285 81 1 269 324 272 238 224 227 219 216 233 297 221 262 49 158 358 84 240 249 264 263 272 289 212 264 257 272 278 233 245 246 256 211 203
360 354 351 348 341 334 336 332 24 89 214 203 216 244 284 286 223 197 205 204 235 49 162 275 75 242 240 220 237 246 260 265 274 263 274 246 263 285 274 286 264 238 215 251 243
358 353 344 339 335 322 326 150 241 314 295 227 234 223 254 270 293 221 185 151 165 211 250 352 250 249 242 253 242 249 252 260 263 253 252 289 278 284 285 261 234 223 216 216 214
354 354 342 331 325 314 301 267 317 313 295 296 220 211 219 213 238 241 164 196 183 204 219 206 239 257 252 256 260 260 241 262 263 265 271 328 294 292 291 256 256 225 225 205 197
351 354 345 329 319 315 271 344 351 180 18 278 193 225 201 188 234 222 189 170 195 213 226 236 252 255 281 287 284 294 352 7 327 299 277 166 271 276 273 295 286 280 295 257 224
350 348 341 323 293 272 317 347 335 67 342 214 169 172 151 156 179 271 190 151 219 218 144 233 225 251 270 269 84 253 347 2 344 326 290 249 204 268 330 293 279 287 297 290 286
348 344 334 325 235 259 327 329 336 51 269 226 127 181 134 232 249 308 183 207 225 220 231 245 246 201 245 269 185 275 336 358 7 61 277 294 207 268 254 258 266 263 287 287 282
347 341 313 230 221 296 331 8 46 155 296 33 123 102 232 259 241 227 237 210 218 198 243 265 265 266 105 32 12 48 46 333 331 290 261 260 262 250 270 264 243 260 298 296 293
344 340 317 278 276 267 349 52 176 262 286 345 11 357 335 358 346 356 5 338 257 345 14 201 303 76 134 124 150 124 140 180 242 254 283 10 252 255 284 292 263 257 263 320 278
343 338 305 310 167 179 71 95 219 247 324 348 352 332 348 10 354 14 323 257 80 142 172 44 237 6 288 160 138 144 179 172 222 325 287 234 276 276 273 283 264 233 35 342 346
339 328 287 172 160 104 81 233 250 291 326 307 148 289 342 310 323 357 289 229 125 109 104 264 309 309 58 96 260 152 153 208 286 265 258 268 261 254 359 355 13 352 35 27 339
344 345 318 165 154 62 181 236 268 301 21 318 288 260 256 339 303 291 261 323 30 313 142 158 157 259 48 273 173 247 96 30 204 184 225 268 267 325 323 280 73 32 9 35 16
17 328 16 197 54 207 218 239 344 330 2 318 337 135 166 254 266 283 255 250 335 327 244 188 154 201 225 252 189 141 166 162 156 260 230 232 241 258 246 289 299 338 159 206 145
326 262 335 196 240 2 327 321 283 334 359 331 291 278 49 77 326 256 303 317 335 351 210 183 189 26 336 352 328 223 195 184 153 82 213 173 263 279 314 302 284 228 217 187 239
329 319 328 13 49 41 340 311 327 320 348 357 360 27 16 343 34 285 309 316 351 337 312 113 157 168 215 222 196 250 243 201 181 179 223 222 273 300 318 336 330 311 277 212 188
257 284 11 328 329 329 329 315 335 332 4 335 330 352 321 281 302 273 291 334 340 54 5 83 211 222 237 251 271 282 281 276 234 240 224 270 253 7 336 292 327 348 327 288 16
307 348 351 301 296 348 326 291 300 322 332 312 341 318 299 248 236 288 279 214 228 338 38 6 275 319 235 250 280 292 289 279 270 265 243 245 267 22 302 292 322 342 325 6 32
345 319 296 283 296 291 240 318 312 312 296 320 320 317 299 283 264 234 211 207 219 219 220 211 155 10 270 310 308 299 307 280 291 56 344 45 6 327 277 309 311 330 344 347 354